Samedan Airport LSZS

Flugplatz Daten

Name: Samedan Airport

Ident: LSZS

Lat: 46,53409958

Long: 9,884110451

Platzhöhe: 5600 ft

IataCode: SMV

City:

Metar

2021/10/25 19:50
LSZS 251950Z AUTO VRB02KT 9999 BKN075 M02/M07 Q1022

Taf

Webcams

Samedan Flugplatz
Gewünschte Webcam nicht vorhanden? Dann fügen Sie eine hinzu. Sie wird dann so schnell wie möglich freigeschaltet
Url: Title: